ASTROSAT

Last updated on Tue Sep 16 2025 00:03:34 GMT+0000 (Coordinated Universal Time)

1 40930U 15052A 25258.21212797 .00002071 00000+0 17435-3 0 9994 2 40930 5.9978 333.5259 0007633 67.7851 292.3087 14.81649209538965
UTC large
Height (km)
Speed (km/s)
/
Latitude / Longitude
Inclination (degrees)
Orbital Period (minutes)
Azimuth
Elevation
Range (km)
Doppler Factor

Next 0 passes for location: London (51.5072 / 0.1276)

Sorry there are no passes over London.